Regional Weather Roundup
Issued by NWS Sterling, VA

Home | Current Version | Previous Version | Text Only | Print | Product List | Glossary Off
Versions: 1 2 3 4 5 6 7 8 9 10 11 12 13 14 15 16 17 18 19 20 21 22 23 24 25 26 27 28

000
ASUS41 KLWX 271511
RWRLWX

REGIONAL WEATHER ROUNDUP
NATIONAL WEATHER SERVICE BALTIMORE MD/WASHINGTON DC
1100 AM EDT MON MAR 27 2017

Note: "FAIR" indicates few or no clouds below 12,000 feet
with no significant weather and/or obstructions to visibility.
 TC=TEMPERATURE CELSIUS

 * =Non NWS site. Station does not report precipitation (e.g. rain,
    snow, etc.), thunder, or fog.

DCZ001-MDZ009-015-VAZ040>042-051-053>054-271600-
WASHINGTON METRO

CITY           SKY/WX    TMP DP  RH WIND       PRES   REMARKS
WASHINGTON NAT CLOUDY    52  51  97 S9        30.08F
DULLES         CLOUDY    53  49  86 SW7       30.06F FOG
ANDREWS AFB    CLOUDY    55  55 100 SW9       30.06F
FT BELVOIR     CLOUDY    54  52  94 VRB6      30.07S
QUANTICO       CLOUDY    50  50 100 SW6       30.09S
COLLEGE PARK*  CLOUDY    52  48  87 SW3       30.07S
LEESBURG*      CLOUDY    52  52 100 CALM      30.07S FOG
MANASSAS*      CLOUDY    55  52  89 SW6       30.07F

$$

MDZ006>007-011-014-271600-
BALTIMORE METRO

CITY           SKY/WX    TMP DP  RH WIND       PRES   REMARKS
BWI AIRPORT    CLOUDY    50  50 100 CALM      30.07F FOG
MD SCIENCE CTR   N/A     49  45  86 MISG      30.08F
MARTIN STATE   FOG       48  48 100 CALM      30.10F VSB 1
ANNAPOLIS      CLOUDY    48  48 100 SE7       30.08F FOG
FORT MEADE*    CLOUDY    50  48  93 CALM      30.10S

$$

MDZ012-015-019>023-271600-
MARYLAND EASTERN SHORE

CITY           SKY/WX    TMP DP  RH WIND       PRES   REMARKS
OCEAN CITY     MOSUNNY   63  54  72 SW12G22   30.11F
SALISBURY      CLOUDY    68  56  65 SW18G25   30.09F
BAY BRIDGE AP* CLOUDY    52  52 100 S3        30.08F FOG
CAMBRIDGE*     MOSUNNY   63  55  77 SW10G17   30.09S
EASTON*        PTSUNNY   57  54  88 SW7       30.11F

$$

MDZ017>025-271600-
SOUTHERN MARYLAND

CITY           SKY/WX    TMP DP  RH WIND       PRES   REMARKS
PATUXENT RIVER CLOUDY    65  59  81 SW12G17   30.07S
ST INIGOES     CLOUDY    65  56  72 S8        30.08S
LEONARDTOWN*   CLOUDY    64  55  72 S13G18    30.09S

$$

MDZ003>005-271600-
NORTH CENTRAL MARYLAND

CITY           SKY/WX    TMP DP  RH WIND       PRES   REMARKS
FREDERICK*     NOT AVBL
HAGERSTOWN APT LGT RAIN  49  48  97 CALM      30.04F FOG
WESTMINSTER*     N/A     52  50  93 SW6       30.06S FOG

$$

MDZ501>502-271600-
WESTERN MARYLAND

CITY           SKY/WX    TMP DP  RH WIND       PRES   REMARKS
OAKLAND*       CLOUDY    52  52 100 W12G18    30.04S
CUMBERLAND*    CLOUDY    50  46  87 CALM      30.09S

$$

VAZ025>031-271600-
SHENANDOAH VALLEY

CITY           SKY/WX    TMP DP  RH WIND       PRES   REMARKS
WINCHESTER*    CLOUDY    57  54  88 S3        30.03F
FRONT ROYAL*   CLOUDY    66  57  72 SW10      30.02F
LURAY*         SUNNY     66  59  77 S9        30.03F
NEW MARKET*    PTSUNNY   64  56  76 SW9G16    30.03F
STAUNTON*      MOSUNNY   64  57  77 SW14      30.08S
WAYNESBORO*    MOSUNNY   65  58  79 SW8G18    30.07S

$$

WVZ021-048>050-054>055-271600-
EASTERN WEST VIRGINIA PANHANDLE

CITY           SKY/WX    TMP DP  RH WIND       PRES   REMARKS
MARTINSBURG    CLOUDY    50  48  93 N6        30.05S FOG
PETERSBURG*    CLOUDY    55  51  88 CALM      30.05R

$$

VAZ036>039-050-271600-
CENTRAL FOOTHILLS

CITY           SKY/WX    TMP DP  RH WIND       PRES   REMARKS
CHARLOTTESVILL CLOUDY    60  56  86 SW8       30.06F
CULPEPER*      CLOUDY    55  55 100 SW5       30.07F
ORANGE*        CLOUDY    57  55  94 SW9       30.08F
GORDONSVILLE*  CLOUDY    57  56  95 SW10      30.07S
WARRENTON*     CLOUDY    56  51  84 SW3       30.06F

$$

VAZ055>057-271600-
NORTH AND CENTRAL PIEDMONT

CITY           SKY/WX    TMP DP  RH WIND       PRES   REMARKS
FREDERICKSBRG* CLOUDY    57  57 100 SW6       30.07F
STAFFORD*      CLOUDY    54  54 100 S5        30.11F FOG

$$

NCZ024-NYZ072-PAZ021-071-VAZ022-071-271600-
OTHER REGIONAL OBSERVATIONS

CITY           SKY/WX    TMP DP  RH WIND       PRES   REMARKS
NEW YORK CITY  LGT RAIN  42  41  96 CALM      30.11F FOG
PHILADELPHIA   CLOUDY    48  46  93 CALM      30.09F FOG
PITTSBURGH     PTSUNNY   58  50  75 W9        30.00R
ROANOKE        CLOUDY    65  57  75 CALM      30.10F
RICHMOND       PTSUNNY   65  58  78 SW12      30.09F
RALEIGH        CLOUDY    65  59  81 SW8       30.14F

$$

ANZ530>537-271600-
MARINE OBSERVATIONS

STATION/POSITION TIME  TEMP    WIND        PRES
                       AIR SEA DIR/SP/G
                 (UTC) (F)     (DEG/KT/KT) (MB)
THOMAS PT LIGHT  1500   46 45  120/  5/  5   N/A
BALT KEY BRIDGE  1442   45     120/  3/  3 1018.7F
COVE POINT       1442   48     340/  2/  3 1019.3S
LEWISETTA        1448   65 52  240/ 13/ 16 1018.5S
SOLOMONS ISLAND  1442   58 47  230/ 13/ 15   N/A
PINEY POINT      1448          240/  4/  6   N/A

$$





USA.gov is the U.S. government's official web portal to all federal, state and local government web resources and services.